Home > Weather > Finland > Rovaniemi > Past weeks

Flag for Finland Weather past 2 weeks in Rovaniemi, Finland

27 °F

Light snow. Passing clouds.

Feels Like: 17 °F
Forecast: 15 / 26 °F
Wind: 9 mph from Northeast

Location: Rovaniemi Airport

Current Time: Dec 1, 2015 at 8:28:36 PM

Latest Report: Dec 1, 2015 at 7:50 PM

Visibility: N/A

Pressure: 29.24 "Hg

Humidity: 93%

Dew point: 25 °F

Location of RovaniemiLocation

Historic Weather in Rovaniemi — Graph


Rovaniemi temperature yesterday

Maximum temperature yesterday: 32 °F (at 1:50 AM)
Minimum temperature yesterday: 30 °F (at 12:20 AM)
Average temperature yesterday: 31 °F

Past Weeks' High & Low Weather Summary

High37 °F (Nov 28, 12:20 AM)100% (Nov 16, 7:20 PM)29.71 "Hg (Nov 16, 7:20 PM)
Low9 °F (Nov 22, 4:50 AM)74% (Nov 19, 6:20 PM)28.68 "Hg (Nov 27, 4:20 AM)
Average27 °F95%29.29 "Hg
* Reported Nov 16 7:20 PM — Dec 1 7:20 PM, Rovaniemi, Weather by CustomWeather, © 2015

Note: Actual official high and low records may vary slightly from our data, if they occured in-between our weather recording intervals... More about our weather records


Rovaniemi weather history for previous 24 hours

Time TempWeatherWind HumidityBarometerVisibility
7:20 PM
Tue, Dec 1
27 °FLight snow. Overcast.7 mph93%29.21 "HgN/A
6:50 PM27 °FLight snow. Mostly cloudy.8 mph93%29.21 "HgN/A
6:20 PM27 °FLight snow. Overcast.8 mph93%29.21 "HgN/A
5:50 PM27 °FLight snow. Overcast.8 mph93%29.18 "HgN/A
5:20 PM27 °FLight snow. Mostly cloudy.8 mph93%29.18 "HgN/A
4:50 PM27 °FLight snow. Overcast.9 mph93%29.15 "HgN/A
4:20 PM28 °FLight snow. Overcast.10 mph86%29.15 "HgN/A
3:50 PM28 °FLight snow. Mostly cloudy.9 mph93%29.15 "HgN/A
3:20 PM28 °FLight snow. Mostly cloudy.9 mph93%29.12 "Hg6 mi
2:50 PM28 °FPassing clouds.8 mph93%29.12 "HgN/A
2:20 PM28 °FPassing clouds.9 mph93%29.09 "HgN/A
1:50 PM28 °FPartly sunny.9 mph93%29.09 "HgN/A
1:20 PM28 °FPartly sunny.9 mph93%29.06 "HgN/A
12:50 PM28 °FPartly sunny.9 mph93%29.06 "HgN/A
12:20 PM28 °FLight snow. Broken clouds.9 mph93%29.06 "HgN/A
11:50 AM28 °FLight snow. Broken clouds.9 mph93%29.03 "HgN/A
11:20 AM28 °FPartly sunny.8 mph93%29.03 "HgN/A
10:50 AM28 °FLight snow. Partly sunny.7 mph93%29.03 "HgN/A
8:50 AM28 °FLight snow. Passing clouds.10 mph93%29.00 "HgN/A
8:20 AM28 °FLight snow. Passing clouds.9 mph93%29.00 "HgN/A
7:50 AM28 °FLight snow. Passing clouds.9 mph93%29.00 "HgN/A
7:20 AM28 °FLight snow. Passing clouds.9 mph93%28.97 "Hg3 mi
6:50 AM28 °FLight mixture of precip. Mostly cloudy.12 mph93%28.97 "Hg4 mi
6:20 AM30 °FLight mixture of precip. Mostly cloudy.10 mph93%28.97 "HgN/A
5:50 AM30 °FLight mixture of precip. Mostly cloudy.12 mph93%28.97 "Hg3 mi
5:20 AM30 °FLight snow. Partly cloudy.13 mph93%28.97 "Hg1 mi
4:50 AM30 °FLight snow. Overcast.12 mph93%28.97 "Hg1 mi
4:20 AM30 °FLight snow. Partly cloudy.12 mph93%28.97 "Hg2 mi
3:50 AM30 °FLight mixture of precip. Mostly cloudy.12 mph93%28.97 "Hg2 mi
2:50 AM30 °FLight mixture of precip. Mostly cloudy.12 mph93%28.97 "HgN/A
1:50 AM30 °FLight snow. Mostly cloudy.12 mph100%28.97 "HgN/A
1:20 AM30 °FMostly cloudy.10 mph100%28.97 "HgN/A
12:20 AM32 °FMostly cloudy.12 mph93%28.97 "HgN/A
11:50 PM
Mon, Nov 30
32 °FMostly cloudy.12 mph93%28.97 "HgN/A
11:20 PM32 °FLight mixture of precip. Partly cloudy.12 mph93%28.97 "HgN/A
10:50 PM32 °FLight snow. Overcast.12 mph93%29.00 "Hg1 mi
10:20 PM32 °FLight snow. Partly cloudy.12 mph93%29.00 "Hg2 mi
9:50 PM32 °FSnow. Partly cloudy.10 mph93%29.00 "Hg1 mi
9:20 PM32 °FLight snow. Dense fog.10 mph93%29.00 "Hg1 mi
8:50 PM32 °FLight snow. Mostly cloudy.10 mph93%29.00 "Hg4 mi
8:20 PM32 °FLight snow. Partly cloudy.9 mph93%29.00 "Hg2 mi
Weather by CustomWeather, © 2015

See weather overviewHow to use our weather pages